• In Deutschland
  • Länderverzeichnis
  • Für 7 Tage
  • Wassertemperatur
  • Satellitenkarten
  • Wetterkarte
  • Widgets
  • user-avatar
    Anmelden

    Stündliche Wetter Canberra

    Heute, 29 März, Mittwoch

    Zeit Temperatur Niederschläge Wind Luftdruck Luftfeuchtigkeit
    00:00 +12°C° 0 mm 1 m/S 706 mmHg 86%
    01:00 +11°C° 0 mm 0 m/S 706 mmHg 87%
    02:00 +11°C° 0 mm 1 m/S 706 mmHg 85%
    03:00 +11°C° 0 mm 1 m/S 705 mmHg 83%
    04:00 +10°C° 0 mm 1 m/S 705 mmHg 80%
    05:00 +11°C° 0 mm 1 m/S 705 mmHg 74%
    06:00 +11°C° 0 mm 1 m/S 706 mmHg 67%
    07:00 +12°C° 0 mm 1 m/S 706 mmHg 60%
    08:00 +16°C° 0 mm 2 m/S 706 mmHg 48%
    09:00 +19°C° 0 mm 2 m/S 707 mmHg 36%
    10:00 +24°C° 0 mm 3 m/S 707 mmHg 24%
    11:00 +26°C° 0 mm 3 m/S 707 mmHg 25%
    12:00 +28°C° 0 mm 4 m/S 706 mmHg 25%
    13:00 +30°C° 0 mm 5 m/S 706 mmHg 25%
    14:00 +29°C° 0 mm 5 m/S 705 mmHg 27%
    15:00 +29°C° 0 mm 4 m/S 705 mmHg 28%
    16:00 +29°C° 0 mm 4 m/S 704 mmHg 30%
    17:00 +25°C° 0 mm 3 m/S 704 mmHg 37%
    18:00 +21°C° 0 mm 2 m/S 703 mmHg 45%
    19:00 +19°C° 0 mm 1 m/S 703 mmHg 53%
    20:00 +19°C° 0 mm 1 m/S 703 mmHg 54%
    21:00 +18°C° 0 mm 1 m/S 703 mmHg 55%
    22:00 +16°C° 0 mm 1 m/S 703 mmHg 56%
    23:00 +16°C° 0 mm 1 m/S 703 mmHg 59%

    Morgen, 30 März, Donnerstag

    Zeit Temperatur Niederschläge Wind Luftdruck Luftfeuchtigkeit
    00:00 +16°C° 0 mm 1 m/S 703 mmHg 63%
    01:00 +15°C° 0 mm 1 m/S 703 mmHg 66%
    02:00 +15°C° 0 mm 1 m/S 703 mmHg 67%
    03:00 +14°C° 0 mm 1 m/S 703 mmHg 68%
    04:00 +13°C° 0 mm 1 m/S 703 mmHg 69%
    05:00 +14°C° 0 mm 1 m/S 704 mmHg 66%
    06:00 +14°C° 0 mm 1 m/S 704 mmHg 64%
    07:00 +14°C° 0 mm 1 m/S 705 mmHg 61%
    08:00 +16°C° 0 mm 1 m/S 706 mmHg 60%
    09:00 +17°C° 0 mm 2 m/S 706 mmHg 58%
    10:00 +19°C° 0 mm 2 m/S 707 mmHg 57%
    11:00 +19°C° 0 mm 2 m/S 707 mmHg 58%
    12:00 +19°C° 0 mm 2 m/S 707 mmHg 60%
    13:00 +19°C° 0 mm 2 m/S 707 mmHg 62%
    14:00 +18°C° 0,4 mm 3 m/S 707 mmHg 67%
    15:00 +17°C° 0,4 mm 3 m/S 707 mmHg 72%
    16:00 +16°C° 0,4 mm 3 m/S 707 mmHg 77%
    17:00 +13°C° 0,2 mm 3 m/S 707 mmHg 78%
    18:00 +12°C° 0,2 mm 3 m/S 708 mmHg 80%
    19:00 +10°C° 0,2 mm 3 m/S 708 mmHg 81%
    20:00 +10°C° 0 mm 3 m/S 709 mmHg 80%
    21:00 +10°C° 0 mm 3 m/S 709 mmHg 80%
    22:00 +9°C° 0 mm 3 m/S 710 mmHg 79%
    23:00 +9°C° 0 mm 3 m/S 710 mmHg 79%

    übermorgen, 31 März, Freitag

    Zeit Temperatur Niederschläge Wind Luftdruck Luftfeuchtigkeit
    00:00 +8°C° 0 mm 3 m/S 710 mmHg 79%
    01:00 +7°C° 0 mm 2 m/S 710 mmHg 79%
    02:00 +7°C° 0 mm 2 m/S 710 mmHg 79%
    03:00 +6°C° 0 mm 2 m/S 710 mmHg 79%
    04:00 +6°C° 0 mm 2 m/S 709 mmHg 78%
    05:00 +6°C° 0 mm 2 m/S 710 mmHg 78%
    06:00 +6°C° 0 mm 2 m/S 710 mmHg 78%
    07:00 +6°C° 0 mm 2 m/S 711 mmHg 78%
    08:00 +9°C° 0 mm 2 m/S 711 mmHg 67%
    09:00 +13°C° 0 mm 2 m/S 711 mmHg 57%
    10:00 +16°C° 0 mm 2 m/S 712 mmHg 46%
    11:00 +17°C° 0 mm 2 m/S 711 mmHg 42%
    12:00 +19°C° 0 mm 2 m/S 711 mmHg 37%
    13:00 +21°C° 0 mm 2 m/S 711 mmHg 32%
    14:00 +21°C° 0 mm 2 m/S 711 mmHg 34%
    15:00 +20°C° 0 mm 2 m/S 711 mmHg 36%
    16:00 +20°C° 0 mm 2 m/S 710 mmHg 38%
    17:00 +17°C° 0 mm 2 m/S 710 mmHg 51%
    18:00 +15°C° 0 mm 2 m/S 710 mmHg 64%
    19:00 +12°C° 0 mm 2 m/S 710 mmHg 78%
    20:00 +11°C° 0 mm 1 m/S 710 mmHg 83%
    21:00 +10°C° 0 mm 1 m/S 711 mmHg 89%
    22:00 +9°C° 0 mm 1 m/S 711 mmHg 95%
    23:00 +9°C° 0 mm 1 m/S 710 mmHg 96%

    1 April, Samstag

    Zeit Temperatur Niederschläge Wind Luftdruck Luftfeuchtigkeit
    00:00 +8°C° 0 mm 1 m/S 710 mmHg 97%
    01:00 +8°C° 0 mm 1 m/S 710 mmHg 98%
    02:00 +7°C° 0 mm 0 m/S 709 mmHg 98%
    03:00 +6°C° 0 mm 0 m/S 709 mmHg 98%
    04:00 +5°C° 0 mm 0 m/S 709 mmHg 98%
    05:00 +6°C° 0 mm 0 m/S 709 mmHg 97%
    06:00 +7°C° 0 mm 0 m/S 710 mmHg 96%
    07:00 +8°C° 0 mm 0 m/S 710 mmHg 95%
    08:00 +12°C° 0 mm 1 m/S 711 mmHg 79%
    09:00 +15°C° 0 mm 1 m/S 711 mmHg 62%
    10:00 +19°C° 0 mm 1 m/S 712 mmHg 46%
    11:00 +20°C° 0 mm 2 m/S 711 mmHg 40%
    12:00 +21°C° 0 mm 2 m/S 711 mmHg 35%
    13:00 +24°C° 0 mm 2 m/S 711 mmHg 30%
    14:00 +24°C° 0 mm 2 m/S 711 mmHg 31%
    15:00 +23°C° 0 mm 2 m/S 711 mmHg 31%
    16:00 +23°C° 0 mm 2 m/S 710 mmHg 32%
    17:00 +19°C° 0 mm 2 m/S 711 mmHg 45%
    18:00 +16°C° 0 mm 2 m/S 711 mmHg 58%
    19:00 +14°C° 0 mm 2 m/S 711 mmHg 71%
    20:00 +13°C° 0 mm 2 m/S 712 mmHg 78%
    21:00 +12°C° 0 mm 2 m/S 712 mmHg 86%
    22:00 +12°C° 0 mm 2 m/S 713 mmHg 93%
    23:00 +12°C° 0 mm 2 m/S 713 mmHg 92%

    2 April, Sonntag

    Zeit Temperatur Niederschläge Wind Luftdruck Luftfeuchtigkeit
    00:00 +10°C° 0 mm 2 m/S 713 mmHg 91%
    01:00 +10°C° 0 mm 2 m/S 713 mmHg 90%
    02:00 +10°C° 0 mm 2 m/S 713 mmHg 90%
    03:00 +9°C° 0 mm 2 m/S 713 mmHg 89%
    04:00 +9°C° 0 mm 2 m/S 713 mmHg 89%
    05:00 +9°C° 0 mm 2 m/S 714 mmHg 86%
    06:00 +8°C° 0 mm 2 m/S 715 mmHg 83%
    07:00 +8°C° 0 mm 2 m/S 715 mmHg 80%
    08:00 +10°C° 0 mm 2 m/S 716 mmHg 69%
    09:00 +13°C° 0 mm 2 m/S 716 mmHg 58%
    10:00 +15°C° 0 mm 2 m/S 717 mmHg 46%
    11:00 +16°C° 0 mm 2 m/S 716 mmHg 45%
    12:00 +17°C° 0 mm 2 m/S 716 mmHg 43%
    13:00 +18°C° 0 mm 2 m/S 716 mmHg 41%
    14:00 +18°C° 0 mm 2 m/S 716 mmHg 43%
    15:00 +18°C° 0 mm 2 m/S 716 mmHg 44%
    16:00 +17°C° 0 mm 2 m/S 716 mmHg 46%
    17:00 +16°C° 0 mm 2 m/S 717 mmHg 55%
    18:00 +14°C° 0 mm 2 m/S 717 mmHg 65%
    19:00 +11°C° 0 mm 3 m/S 717 mmHg 74%
    20:00 +10°C° 0 mm 2 m/S 718 mmHg 79%
    21:00 +9°C° 0 mm 2 m/S 718 mmHg 83%
    22:00 +9°C° 0 mm 2 m/S 718 mmHg 88%
    23:00 +8°C° 0 mm 2 m/S 718 mmHg 90%

    3 April, Montag

    Zeit Temperatur Niederschläge Wind Luftdruck Luftfeuchtigkeit
    00:00 +8°C° 0 mm 2 m/S 718 mmHg 91%
    01:00 +7°C° 0 mm 2 m/S 718 mmHg 93%
    02:00 +7°C° 0 mm 2 m/S 718 mmHg 93%
    03:00 +7°C° 0 mm 2 m/S 718 mmHg 93%
    04:00 +6°C° 0 mm 2 m/S 718 mmHg 93%
    05:00 +6°C° 0 mm 2 m/S 718 mmHg 91%
    06:00 +7°C° 0 mm 2 m/S 719 mmHg 88%
    07:00 +7°C° 0 mm 2 m/S 719 mmHg 86%
    08:00 +10°C° 0 mm 2 m/S 719 mmHg 71%
    09:00 +14°C° 0 mm 2 m/S 720 mmHg 57%
    10:00 +16°C° 0 mm 2 m/S 720 mmHg 43%
    11:00 +18°C° 0 mm 2 m/S 720 mmHg 39%
    12:00 +19°C° 0 mm 2 m/S 719 mmHg 36%
    13:00 +20°C° 0 mm 2 m/S 719 mmHg 33%
    14:00 +19°C° 0 mm 2 m/S 719 mmHg 36%
    15:00 +19°C° 0 mm 2 m/S 718 mmHg 38%
    16:00 +18°C° 0 mm 3 m/S 718 mmHg 41%
    17:00 +16°C° 0 mm 2 m/S 718 mmHg 54%
    18:00 +14°C° 0 mm 2 m/S 718 mmHg 67%
    19:00 +12°C° 0 mm 2 m/S 718 mmHg 81%
    20:00 +10°C° 0 mm 2 m/S 718 mmHg 86%
    21:00 +9°C° 0 mm 2 m/S 719 mmHg 91%
    22:00 +9°C° 0 mm 2 m/S 719 mmHg 96%
    23:00 +8°C° 0 mm 2 m/S 719 mmHg 96%
    Mehr zeigen